Location: Newark
(21.0333°N, 105.8500°E)
Time: 02:10:55
(UTC+00:00)

Envisat - Pass Details

Date: 13 December 2019
Orbit: 764 x 766 km, 98.1° (Epoch: 23 January)

Event Time Altitude Azimuth Distance (km) Brightness Sun altitude
Rises 22:56:51 0° 25° (NNE) 3,223 6.3 -6.8°
Reaches altitude 10° 22:59:21 10° 34° (NE) 2,295 5.6 -6.3°
Maximum altitude 23:03:56 35° 99° (E) 1,225 5.0 -5.3°
Drops below altitude 10° 23:08:29 10° 164° (SSE) 2,288 6.1 -4.3°
Sets 23:10:58 0° 173° (S) 3,211 6.7 -3.8°
